Time,TemperatureF,DewpointF,PressureIn,WindDirection,WindDirectionDegrees,WindSpeedMPH,WindSpeedGustMPH,Humidity,HourlyPrecipIn,Conditions,Clouds,dailyrainin,SoftwareType,DateUTC
2013-01-01 00:04:00,76.8,73.0,29.93,NE,40,5.0,13.0,87,0.00,,,0.00,weatherlink.com 1.10,2013-01-01 04:04:00,
2013-01-01 00:19:00,75.8,72.0,29.93,NE,38,5.0,19.0,88,0.01,,,0.01,weatherlink.com 1.10,2013-01-01 04:19:00,
2013-01-01 00:34:00,75.2,72.0,29.93,North,5,3.0,7.0,90,0.01,,,0.01,weatherlink.com 1.10,2013-01-01 04:34:00,
2013-01-01 00:49:00,75.1,72.0,29.93,NE,51,1.0,4.0,90,0.01,,,0.01,weatherlink.com 1.10,2013-01-01 04:49:00,
2013-01-01 01:04:00,75.1,71.0,29.92,NE,46,3.0,8.0,88,0.01,,,0.01,weatherlink.com 1.10,2013-01-01 05:04:00,
2013-01-01 01:19:00,75.3,72.0,29.92,East,101,7.0,9.0,90,0.00,,,0.01,weatherlink.com 1.10,2013-01-01 05:19:00,
2013-01-01 01:34:00,75.9,73.0,29.91,North,10,5.0,13.0,91,0.01,,,0.02,weatherlink.com 1.10,2013-01-01 05:34:00,
2013-01-01 01:49:00,76.9,74.0,29.91,NE,49,5.0,12.0,89,0.01,,,0.02,weatherlink.com 1.10,2013-01-01 05:49:00,
2013-01-01 02:04:00,77.5,73.0,29.91,ENE,64,3.0,13.0,87,0.01,,,0.02,weatherlink.com 1.10,2013-01-01 06:04:00,
2013-01-01 02:19:00,78.1,73.0,29.90,ENE,67,5.0,8.0,85,0.01,,,0.02,weatherlink.com 1.10,2013-01-01 06:19:00,
2013-01-01 02:34:00,78.3,73.0,29.90,NE,50,9.0,14.0,84,0.00,,,0.02,weatherlink.com 1.10,2013-01-01 06:34:00,
2013-01-01 02:49:00,78.6,73.0,29.89,ENE,68,7.0,12.0,84,0.00,,,0.02,weatherlink.com 1.10,2013-01-01 06:49:00,
2013-01-01 03:04:00,78.7,72.0,29.89,NE,49,4.0,14.0,81,0.00,,,0.02,weatherlink.com 1.10,2013-01-01 07:04:00,
2013-01-01 03:19:00,78.8,73.0,29.89,NE,53,5.0,10.0,81,0.00,,,0.02,weatherlink.com 1.10,2013-01-01 07:19:00,
2013-01-01 03:34:00,78.8,73.0,29.89,ENE,61,3.0,11.0,82,0.00,,,0.02,weatherlink.com 1.10,2013-01-01 07:34:00,
2013-01-01 03:49:00,78.7,73.0,29.88,NE,55,8.0,13.0,83,0.00,,,0.02,weatherlink.com 1.10,2013-01-01 07:49:00,
2013-01-01 04:04:00,78.8,73.0,29.88,NE,55,5.0,16.0,81,0.00,,,0.02,weatherlink.com 1.10,2013-01-01 08:04:00,
2013-01-01 04:19:00,78.6,73.0,29.89,NE,55,5.0,14.0,82,0.00,,,0.02,weatherlink.com 1.10,2013-01-01 08:19:00,
2013-01-01 04:34:00,78.5,72.0,29.89,East,79,3.0,14.0,81,0.00,,,0.02,weatherlink.com 1.10,2013-01-01 08:34:00,
2013-01-01 04:49:00,78.4,73.0,29.89,ENE,67,5.0,17.0,82,0.00,,,0.02,weatherlink.com 1.10,2013-01-01 08:49:00,
2013-01-01 05:04:00,78.5,72.0,29.89,ENE,76,8.0,13.0,79,0.00,,,0.02,weatherlink.com 1.10,2013-01-01 09:04:00,
2013-01-01 05:19:00,78.6,72.0,29.89,ESE,104,4.0,11.0,79,0.00,,,0.02,weatherlink.com 1.10,2013-01-01 09:19:00,
2013-01-01 05:34:00,78.4,71.0,29.89,East,88,8.0,10.0,79,0.00,,,0.02,weatherlink.com 1.10,2013-01-01 09:34:00,
2013-01-01 05:49:00,78.3,71.0,29.89,ENE,71,5.0,12.0,79,0.00,,,0.02,weatherlink.com 1.10,2013-01-01 09:49:00,
2013-01-01 06:04:00,78.2,72.0,29.90,NE,54,3.0,12.0,80,0.00,,,0.02,weatherlink.com 1.10,2013-01-01 10:04:00,
2013-01-01 06:19:00,78.2,72.0,29.90,NE,51,3.0,11.0,81,0.00,,,0.02,weatherlink.com 1.10,2013-01-01 10:19:00,
2013-01-01 06:34:00,77.9,71.0,29.90,NE,45,5.0,8.0,80,0.00,,,0.02,weatherlink.com 1.10,2013-01-01 10:34:00,
2013-01-01 06:49:00,77.9,71.0,29.91,NE,48,4.0,10.0,80,0.00,,,0.02,weatherlink.com 1.10,2013-01-01 10:49:00,
2013-01-01 07:04:00,77.8,71.0,29.91,ENE,67,3.0,11.0,80,0.00,,,0.02,weatherlink.com 1.10,2013-01-01 11:04:00,
2013-01-01 07:19:00,78.0,71.0,29.92,East,84,2.0,9.0,79,0.00,,,0.02,weatherlink.com 1.10,2013-01-01 11:19:00,
2013-01-01 07:34:00,78.4,71.0,29.93,East,84,6.0,9.0,79,0.00,,,0.02,weatherlink.com 1.10,2013-01-01 11:34:00,
2013-01-01 07:49:00,78.9,72.0,29.93,ENE,62,7.0,9.0,78,0.00,,,0.02,weatherlink.com 1.10,2013-01-01 11:49:00,
2013-01-01 08:04:00,80.4,73.0,29.94,East,88,6.0,11.0,77,0.00,,,0.02,weatherlink.com 1.10,2013-01-01 12:04:00,
2013-01-01 08:19:00,81.1,73.0,29.94,ESE,121,5.0,10.0,75,0.00,,,0.02,weatherlink.com 1.10,2013-01-01 12:19:00,
2013-01-01 08:35:00,82.0,73.0,29.95,ESE,114,10.0,10.0,73,0.00,,,0.02,weatherlink.com 1.10,2013-01-01 12:35:00,
2013-01-01 08:50:00,82.4,73.0,29.95,ENE,63,8.0,13.0,73,0.00,,,0.02,weatherlink.com 1.10,2013-01-01 12:50:00,
2013-01-01 09:05:00,82.3,73.0,29.96,East,96,8.0,13.0,73,0.00,,,0.02,weatherlink.com 1.10,2013-01-01 13:05:00,
2013-01-01 09:20:00,83.0,74.0,29.96,ENE,65,7.0,12.0,73,0.00,,,0.02,weatherlink.com 1.10,2013-01-01 13:20:00,
2013-01-01 09:35:00,83.3,73.0,29.96,ENE,73,7.0,14.0,72,0.00,,,0.02,weatherlink.com 1.10,2013-01-01 13:35:00,
2013-01-01 09:50:00,83.1,73.0,29.97,ENE,61,7.0,15.0,72,0.00,,,0.02,weatherlink.com 1.10,2013-01-01 13:50:00,
2013-01-01 10:05:00,83.9,74.0,29.96,ESE,115,9.0,13.0,72,0.00,,,0.02,weatherlink.com 1.10,2013-01-01 14:05:00,
2013-01-01 10:20:00,84.7,74.0,29.97,NE,55,7.0,11.0,71,0.00,,,0.02,weatherlink.com 1.10,2013-01-01 14:20:00,
2013-01-01 10:35:00,84.8,74.0,29.96,East,81,10.0,16.0,70,0.00,,,0.02,weatherlink.com 1.10,2013-01-01 14:35:00,
2013-01-01 10:50:00,83.7,73.0,29.96,ESE,103,8.0,13.0,71,0.00,,,0.02,weatherlink.com 1.10,2013-01-01 14:50:00,
2013-01-01 11:05:00,84.1,74.0,29.96,East,90,3.0,15.0,72,0.00,,,0.02,weatherlink.com 1.10,2013-01-01 15:05:00,
2013-01-01 11:20:00,83.9,74.0,29.96,NE,48,7.0,13.0,71,0.00,,,0.02,weatherlink.com 1.10,2013-01-01 15:20:00,
2013-01-01 11:35:00,85.2,74.0,29.95,East,101,7.0,14.0,70,0.00,,,0.02,weatherlink.com 1.10,2013-01-01 15:35:00,
2013-01-01 11:50:00,85.0,75.0,29.94,NE,54,5.0,13.0,71,0.00,,,0.02,weatherlink.com 1.10,2013-01-01 15:50:00,
2013-01-01 12:05:00,84.4,74.0,29.94,ENE,71,5.0,15.0,72,0.00,,,0.02,weatherlink.com 1.10,2013-01-01 16:05:00,
2013-01-01 12:20:00,84.6,75.0,29.93,ENE,59,10.0,14.0,72,0.00,,,0.02,weatherlink.com 1.10,2013-01-01 16:20:00,
2013-01-01 12:35:00,84.8,74.0,29.92,NE,56,4.0,15.0,71,0.00,,,0.02,weatherlink.com 1.10,2013-01-01 16:35:00,
2013-01-01 12:50:00,85.4,75.0,29.91,NE,36,9.0,14.0,71,0.00,,,0.02,weatherlink.com 1.10,2013-01-01 16:50:00,
2013-01-01 13:05:00,85.3,75.0,29.91,East,99,6.0,14.0,70,0.00,,,0.02,weatherlink.com 1.10,2013-01-01 17:05:00,
2013-01-01 13:20:00,84.7,74.0,29.91,NE,34,4.0,15.0,70,0.00,,,0.02,weatherlink.com 1.10,2013-01-01 17:20:00,
2013-01-01 13:35:00,84.9,75.0,29.90,East,86,10.0,17.0,71,0.00,,,0.02,weatherlink.com 1.10,2013-01-01 17:35:00,
2013-01-01 13:50:00,84.4,74.0,29.89,East,81,5.0,15.0,72,0.00,,,0.02,weatherlink.com 1.10,2013-01-01 17:50:00,
2013-01-01 14:05:00,84.8,75.0,29.88,SE,128,6.0,15.0,73,0.00,,,0.02,weatherlink.com 1.10,2013-01-01 18:05:00,
2013-01-01 14:20:00,84.9,75.0,29.87,ESE,104,7.0,13.0,73,0.00,,,0.02,weatherlink.com 1.10,2013-01-01 18:20:00,
2013-01-01 14:35:00,83.6,74.0,29.87,ESE,103,4.0,15.0,73,0.00,,,0.02,weatherlink.com 1.10,2013-01-01 18:35:00,
2013-01-01 14:50:00,83.8,75.0,29.86,NE,52,5.0,11.0,74,0.00,,,0.02,weatherlink.com 1.10,2013-01-01 18:50:00,
2013-01-01 15:05:00,84.7,74.0,29.86,ESE,114,4.0,16.0,70,0.00,,,0.02,weatherlink.com 1.10,2013-01-01 19:05:00,
2013-01-01 15:20:00,85.1,74.0,29.86,East,101,8.0,13.0,69,0.00,,,0.02,weatherlink.com 1.10,2013-01-01 19:20:00,
2013-01-01 15:35:00,85.0,74.0,29.86,NE,53,5.0,11.0,70,0.00,,,0.02,weatherlink.com 1.10,2013-01-01 19:35:00,
2013-01-01 15:50:00,84.7,74.0,29.85,East,99,6.0,14.0,70,0.00,,,0.02,weatherlink.com 1.10,2013-01-01 19:50:00,
2013-01-01 16:05:00,83.8,73.0,29.85,ESE,117,4.0,12.0,71,0.00,,,0.02,weatherlink.com 1.10,2013-01-01 20:05:00,
2013-01-01 16:20:00,83.2,74.0,29.85,East,82,5.0,13.0,74,0.00,,,0.02,weatherlink.com 1.10,2013-01-01 20:20:00,
2013-01-01 16:35:00,83.0,74.0,29.85,ENE,58,5.0,12.0,75,0.00,,,0.02,weatherlink.com 1.10,2013-01-01 20:35:00,
2013-01-01 16:50:00,82.8,75.0,29.85,East,98,8.0,12.0,76,0.00,,,0.02,weatherlink.com 1.10,2013-01-01 20:50:00,
2013-01-01 17:05:00,82.3,74.0,29.85,East,79,10.0,10.0,77,0.00,,,0.02,weatherlink.com 1.10,2013-01-01 21:05:00,
2013-01-01 17:20:00,82.1,75.0,29.85,ESE,105,7.0,11.0,78,0.00,,,0.02,weatherlink.com 1.10,2013-01-01 21:20:00,
2013-01-01 17:35:00,81.9,74.0,29.85,East,100,9.0,12.0,78,0.00,,,0.02,weatherlink.com 1.10,2013-01-01 21:35:00,
2013-01-01 17:50:00,81.4,74.0,29.85,East,82,6.0,11.0,79,0.00,,,0.02,weatherlink.com 1.10,2013-01-01 21:50:00,
2013-01-01 18:05:00,81.1,74.0,29.85,ESE,120,7.0,13.0,80,0.00,,,0.02,weatherlink.com 1.10,2013-01-01 22:05:00,
2013-01-01 18:20:00,80.8,73.0,29.86,ENE,71,4.0,11.0,78,0.00,,,0.02,weatherlink.com 1.10,2013-01-01 22:20:00,
2013-01-01 18:35:00,80.5,74.0,29.86,ESE,106,5.0,9.0,80,0.00,,,0.02,weatherlink.com 1.10,2013-01-01 22:35:00,
2013-01-01 18:50:00,80.4,74.0,29.86,NE,50,3.0,11.0,80,0.00,,,0.02,weatherlink.com 1.10,2013-01-01 22:50:00,
2013-01-01 19:05:00,80.3,74.0,29.86,East,90,10.0,10.0,81,0.00,,,0.02,weatherlink.com 1.10,2013-01-01 23:05:00,
2013-01-01 19:20:00,80.3,74.0,29.87,ESE,118,3.0,13.0,81,0.00,,,0.02,weatherlink.com 1.10,2013-01-01 23:20:00,
2013-01-01 19:35:00,80.3,74.0,29.87,NE,54,6.0,11.0,82,0.00,,,0.02,weatherlink.com 1.10,2013-01-01 23:35:00,
2013-01-01 19:50:00,80.4,74.0,29.88,East,96,5.0,11.0,81,0.00,,,0.02,weatherlink.com 1.10,2013-01-01 23:50:00,
2013-01-01 20:05:00,80.4,74.0,29.88,East,83,5.0,14.0,80,0.00,,,0.02,weatherlink.com 1.10,2013-01-02 00:05:00,
2013-01-01 20:20:00,80.4,74.0,29.89,NE,38,2.0,11.0,80,0.00,,,0.02,weatherlink.com 1.10,2013-01-02 00:20:00,
2013-01-01 20:35:00,80.2,74.0,29.89,ENE,62,8.0,11.0,80,0.00,,,0.02,weatherlink.com 1.10,2013-01-02 00:35:00,
2013-01-01 20:50:00,80.3,74.0,29.89,NE,51,6.0,10.0,80,0.00,,,0.02,weatherlink.com 1.10,2013-01-02 00:50:00,
2013-01-01 21:05:00,80.2,74.0,29.90,East,86,9.0,10.0,81,0.00,,,0.02,weatherlink.com 1.10,2013-01-02 01:05:00,
2013-01-01 21:20:00,80.2,74.0,29.90,ENE,71,4.0,9.0,82,0.00,,,0.02,weatherlink.com 1.10,2013-01-02 01:20:00,
2013-01-01 21:35:00,80.1,74.0,29.90,ESE,104,3.0,9.0,82,0.00,,,0.02,weatherlink.com 1.10,2013-01-02 01:35:00,
2013-01-01 21:50:00,80.3,75.0,29.90,ENE,78,9.0,9.0,84,0.00,,,0.02,weatherlink.com 1.10,2013-01-02 01:50:00,
2013-01-01 22:05:00,80.5,75.0,29.90,ENE,70,5.0,14.0,83,0.00,,,0.02,weatherlink.com 1.10,2013-01-02 02:05:00,
2013-01-01 22:20:00,80.3,73.0,29.90,East,101,8.0,15.0,77,0.00,,,0.02,weatherlink.com 1.10,2013-01-02 02:20:00,
2013-01-01 22:35:00,80.3,74.0,29.91,East,88,15.0,15.0,80,0.00,,,0.02,weatherlink.com 1.10,2013-01-02 02:35:00,
2013-01-01 22:50:00,80.4,74.0,29.90,ENE,78,3.0,16.0,80,0.00,,,0.02,weatherlink.com 1.10,2013-01-02 02:50:00,
2013-01-01 23:05:00,80.4,73.0,29.90,East,87,9.0,16.0,79,0.00,,,0.02,weatherlink.com 1.10,2013-01-02 03:05:00,
2013-01-01 23:20:00,80.3,73.0,29.90,ENE,65,11.0,16.0,79,0.00,,,0.02,weatherlink.com 1.10,2013-01-02 03:20:00,
2013-01-01 23:35:00,80.3,73.0,29.90,ENE,59,2.0,16.0,79,0.00,,,0.02,weatherlink.com 1.10,2013-01-02 03:35:00,
2013-01-01 23:50:00,80.3,74.0,29.89,ESE,108,14.0,15.0,80,0.00,,,0.02,weatherlink.com 1.10,2013-01-02 03:50:00,